7 * 24
多渠道服务支持
STARLINK-32402 是 SpaceX 星链计划中的一颗低轨通信卫星,旨在为全球用户提供高速互联网服务。该卫星属于星链第三代组网的一部分,具备先进通信技术和高效能数据传输能力。它运行在约 550 公里的轨道高度,设计寿命较长,支持全球范围内的宽带连接,尤其服务于网络基础设施薄弱的地区。该卫星的发射和部署有助于提升星链系统的覆盖范围与服务质量。
  
                美国
                (US)
                | 数据来源 | 国际轨道数据 | 
| 星历时间: | 2025-11-02T16:53:02+0800 1天前 查看轨道信息 | 
| 半长轴: | 6853.37km | 
| 偏心率: | 0.0001229 | 
| 轨道倾角: | 53.161° | 
| 近地点辐角 | 85.008° | 
| 升交点赤经 | 332.711° | 
| 平近点角 | 275.106° | 
| 近地点: | 474.392km | 
| 远地点: | 476.078km | 
| 周期: | 94.106分钟 | 
| 每日圈数: | 15.301941 |